SB KEPS @ AMSAT $ORB09358.O Orbital Elements 09358.OSCAR
HR AMSAT ORBITAL ELEMENTS FOR OSCAR SATELLITES FROM WA5QGD FORT WORTH,TX December 24, 2009 Send Subscribe/unsubscribe to KEPS at http://www.amsat.org/mailman/listinfo/keps BID: ORB09358.O TO ALL RADIO AMATEURS BT
Satellite: AO-07 Catalog number: 07530 Epoch time: 09357.62882473 Element set: 661 Inclination: 101.4125 deg RA of node: 015.2439 deg Eccentricity: 0.0011848 Arg of perigee: 258.7270 deg Mean anomaly: 101.2470 deg Mean motion: 12.53577335 rev/day Decay rate: -2.7e-07 rev/day^2 Epoch rev: 60645 Checksum: 288
Satellite: FO-29 Catalog number: 24278 Epoch time: 09357.61572829 Element set: 207 Inclination: 098.5228 deg RA of node: 205.9167 deg Eccentricity: 0.0350085 Arg of perigee: 219.1927 deg Mean anomaly: 138.3381 deg Mean motion: 13.52947225 rev/day Decay rate: 9.1e-07 rev/day^2 Epoch rev: 65936 Checksum: 340
Satellite: SO-33 Catalog number: 25509 Epoch time: 09357.54388330 Element set: 614 Inclination: 031.4333 deg RA of node: 061.7542 deg Eccentricity: 0.0354048 Arg of perigee: 194.1937 deg Mean anomaly: 164.8489 deg Mean motion: 14.28276901 rev/day Decay rate: 3.04e-06 rev/day^2 Epoch rev: 58292 Checksum: 319
Satellite: RS-22 Catalog number: 27939 Epoch time: 09358.69863251 Element set: 970 Inclination: 097.9150 deg RA of node: 226.3162 deg Eccentricity: 0.0012617 Arg of perigee: 250.2712 deg Mean anomaly: 109.7131 deg Mean motion: 14.63368281 rev/day Decay rate: 8.1e-07 rev/day^2 Epoch rev: 33343 Checksum: 304
Satellite: VO-52 Catalog number: 28650 Epoch time: 09357.82259757 Element set: 393 Inclination: 097.7183 deg RA of node: 052.8738 deg Eccentricity: 0.0027932 Arg of perigee: 128.5689 deg Mean anomaly: 231.7992 deg Mean motion: 14.81659857 rev/day Decay rate: 1.81e-06 rev/day^2 Epoch rev: 25072 Checksum: 365
Satellite: SO-67 Catalog number: 35870 Epoch time: 09358.18996233 Element set: 286 Inclination: 097.3584 deg RA of node: 046.3669 deg Eccentricity: 0.0010754 Arg of perigee: 318.7240 deg Mean anomaly: 125.6434 deg Mean motion: 15.22895989 rev/day Decay rate: 5.94e-06 rev/day^2 Epoch rev: 1483 Checksum: 357
Satellite: HO-68 Catalog number: 36122 Epoch time: 09358.20137579 Element set: 29 Inclination: 100.4976 deg RA of node: 055.2221 deg Eccentricity: 0.0007423 Arg of perigee: 019.1656 deg Mean anomaly: 340.9742 deg Mean motion: 13.16280162 rev/day Decay rate: -4.5e-07 rev/day^2 Epoch rev: 119 Checksum: 264
/EX SB KEPS @ AMSAT $ORB09358.D Orbital Elements 09358.MICROS
HR AMSAT ORBITAL ELEMENTS FOR THE MICROSATS FROM WA5QGD FORT WORTH,TX December 24, 2009 Send Subscribe/unsubscribe to KEPS at http://www.amsat.org/mailman/listinfo/keps BID: ORB09358.D TO ALL RADIO AMATEURS BT
Satellite: UO-11 Catalog number: 14781 Epoch time: 09358.22842779 Element set: 134 Inclination: 098.0814 deg RA of node: 044.2026 deg Eccentricity: 0.0010114 Arg of perigee: 083.0769 deg Mean anomaly: 277.1641 deg Mean motion: 14.79755347 rev/day Decay rate: 2.2e-07 rev/day^2 Epoch rev: 38593 Checksum: 308
Satellite: AO-16 Catalog number: 20439 Epoch time: 09357.86047079 Element set: 780 Inclination: 098.3076 deg RA of node: 317.9062 deg Eccentricity: 0.0010681 Arg of perigee: 332.2006 deg Mean anomaly: 027.8615 deg Mean motion: 14.31842900 rev/day Decay rate: .00000000 rev/day^2 Epoch rev: 4029 Checksum: 277
Satellite: LO-19 Catalog number: 20442 Epoch time: 09357.81664318 Element set: 0689 Inclination: 098.2689 deg RA of node: 324.3785 deg Eccentricity: 0.0011412 Arg of perigee: 326.9810 deg Mean anomaly: 033.0644 deg Mean motion: 14.32076598 rev/day Decay rate: -.00000000 rev/day^2 Epoch rev: 04045 Checksum: 300
Satellite: AO-27 Catalog number: 22825 Epoch time: 09357.58102745 Element set: 415 Inclination: 098.4662 deg RA of node: 305.2850 deg Eccentricity: 0.0009285 Arg of perigee: 068.9660 deg Mean anomaly: 291.2507 deg Mean motion: 14.29281721 rev/day Decay rate: 2.3e-07 rev/day^2 Epoch rev: 84696 Checksum: 323
Satellite: IO-26 Catalog number: 22826 Epoch time: 09357.81775154 Element set: 149 Inclination: 098.4579 deg RA of node: 306.1851 deg Eccentricity: 0.0009835 Arg of perigee: 063.0891 deg Mean anomaly: 297.1324 deg Mean motion: 14.29535528 rev/day Decay rate: 1.6e-07 rev/day^2 Epoch rev: 84710 Checksum: 332
Satellite: GO-32 Catalog number: 25397 Epoch time: 09357.54768378 Element set: 0071 Inclination: 098.3164 deg RA of node: 009.6461 deg Eccentricity: 0.0002088 Arg of perigee: 067.3033 deg Mean anomaly: 292.8359 deg Mean motion: 14.23168178 rev/day Decay rate: -1.09e-06 rev/day^2 Epoch rev: 59506 Checksum: 333
Satellite: NO-44 Catalog number: 26931 Epoch time: 09357.39191279 Element set: 344 Inclination: 067.0536 deg RA of node: 296.8915 deg Eccentricity: 0.0006980 Arg of perigee: 265.7775 deg Mean anomaly: 094.2547 deg Mean motion: 14.29577078 rev/day Decay rate: -4.3e-07 rev/day^2 Epoch rev: 42962 Checksum: 357
Satellite: SO-50 Catalog number: 27607 Epoch time: 09357.80556063 Element set: 0062 Inclination: 064.5563 deg RA of node: 169.1927 deg Eccentricity: 0.0044749 Arg of perigee: 153.2557 deg Mean anomaly: 207.0841 deg Mean motion: 14.71483576 rev/day Decay rate: -2.6e-07 rev/day^2 Epoch rev: 37657 Checksum: 328
Satellite: CO-55 Catalog number: 27844 Epoch time: 09358.08179706 Element set: 741 Inclination: 098.7109 deg RA of node: 004.5603 deg Eccentricity: 0.0009588 Arg of perigee: 320.5375 deg Mean anomaly: 039.5102 deg Mean motion: 14.20674244 rev/day Decay rate: 3.1e-07 rev/day^2 Epoch rev: 33622 Checksum: 302
Satellite: CO-57 Catalog number: 27848 Epoch time: 09357.73389326 Element set: 0692 Inclination: 098.7168 deg RA of node: 003.2887 deg Eccentricity: 0.0009649 Arg of perigee: 326.0600 deg Mean anomaly: 033.9941 deg Mean motion: 14.20471177 rev/day Decay rate: 4.0e-08 rev/day^2 Epoch rev: 33613 Checksum: 330
Satellite: AO-51 Catalog number: 28375 Epoch time: 09357.71147622 Element set: 562 Inclination: 098.0529 deg RA of node: 356.2904 deg Eccentricity: 0.0083299 Arg of perigee: 270.5069 deg Mean anomaly: 088.6578 deg Mean motion: 14.40663263 rev/day Decay rate: 7.0e-08 rev/day^2 Epoch rev: 28824 Checksum: 340
Satellite: CO-56 Catalog number: 28941 Epoch time: 09297.68475575 Element set: 556 Inclination: 098.0955 deg RA of node: 138.9518 deg Eccentricity: 0.0011688 Arg of perigee: 319.8691 deg Mean anomaly: 040.7485 deg Mean motion: 16.46998778 rev/day Decay rate: 1.4491492e-01 rev/day^2 Epoch rev: 20790 Checksum: 407
Satellite: GENESAT1 Catalog number: 29655 Epoch time: 09357.59693677 Element set: 0911 Inclination: 040.0218 deg RA of node: 072.3979 deg Eccentricity: 0.0003541 Arg of perigee: 126.2206 deg Mean anomaly: 233.8938 deg Mean motion: 15.71292202 rev/day Decay rate: 2.4142e-04 rev/day^2 Epoch rev: 17221 Checksum: 299
Satellite: CP3 Catalog number: 31129 Epoch time: 09358.34626388 Element set: 417 Inclination: 097.9644 deg RA of node: 042.0615 deg Eccentricity: 0.0103240 Arg of perigee: 056.4025 deg Mean anomaly: 304.6974 deg Mean motion: 14.52194012 rev/day Decay rate: 1.50e-06 rev/day^2 Epoch rev: 14248 Checksum: 281
Satellite: CO-65 Catalog number: 32785 Epoch time: 09357.10010303 Element set: 0558 Inclination: 097.9204 deg RA of node: 059.2617 deg Eccentricity: 0.0015632 Arg of perigee: 134.5018 deg Mean anomaly: 225.7416 deg Mean motion: 14.81560688 rev/day Decay rate: 4.00e-06 rev/day^2 Epoch rev: 08941 Checksum: 296
Satellite: KKS-1 Catalog number: 33493 Epoch time: 09358.45773843 Element set: 51 Inclination: 098.0702 deg RA of node: 111.6874 deg Eccentricity: 0.0019773 Arg of perigee: 349.9838 deg Mean anomaly: 010.0980 deg Mean motion: 14.80805283 rev/day Decay rate: 3.53e-06 rev/day^2 Epoch rev: 4962 Checksum: 319
Satellite: SOHLA-1 Catalog number: 33496 Epoch time: 09357.48288457 Element set: 981 Inclination: 098.0485 deg RA of node: 103.9828 deg Eccentricity: 0.0007465 Arg of perigee: 047.2898 deg Mean anomaly: 312.8941 deg Mean motion: 14.69460229 rev/day Decay rate: -2.9e-07 rev/day^2 Epoch rev: 4907 Checksum: 353
/EX SB KEPS @ AMSAT $ORB09358.W Orbital Elements 09358.WEATHER
HR AMSAT ORBITAL ELEMENTS FOR WEATHER SATELLITES FROM WA5QGD FORT WORTH,TX December 24, 2009 Send Subscribe/unsubscribe to KEPS at http://www.amsat.org/mailman/listinfo/keps BID: ORB09358.W TO ALL RADIO AMATEURS BT
Satellite: NOAA-10 Catalog number: 16969 Epoch time: 09357.98118621 Element set: 0890 Inclination: 098.6749 deg RA of node: 023.4338 deg Eccentricity: 0.0012544 Arg of perigee: 006.9928 deg Mean anomaly: 353.1426 deg Mean motion: 14.27401730 rev/day Decay rate: -1.11e-06 rev/day^2 Epoch rev: 21058 Checksum: 308
Satellite: NOAA-11 Catalog number: 19531 Epoch time: 09357.79633826 Element set: 0902 Inclination: 098.7780 deg RA of node: 084.7700 deg Eccentricity: 0.0010951 Arg of perigee: 290.5039 deg Mean anomaly: 069.4966 deg Mean motion: 14.14911886 rev/day Decay rate: 2.68e-06 rev/day^2 Epoch rev: 09633 Checksum: 339
Satellite: NOAA-12 Catalog number: 21263 Epoch time: 09357.53898514 Element set: 0383 Inclination: 098.7689 deg RA of node: 005.6832 deg Eccentricity: 0.0011787 Arg of perigee: 320.4256 deg Mean anomaly: 039.6063 deg Mean motion: 14.25608068 rev/day Decay rate: 3.2e-07 rev/day^2 Epoch rev: 96737 Checksum: 330
Satellite: MET-3/5 Catalog number: 21655 Epoch time: 09357.61605415 Element set: 0702 Inclination: 082.5569 deg RA of node: 072.6862 deg Eccentricity: 0.0014865 Arg of perigee: 070.6391 deg Mean anomaly: 289.6251 deg Mean motion: 13.17021504 rev/day Decay rate: 5.1e-07 rev/day^2 Epoch rev: 88256 Checksum: 307
Satellite: MET-2/21 Catalog number: 22782 Epoch time: 09357.64161143 Element set: 0650 Inclination: 082.5473 deg RA of node: 031.7165 deg Eccentricity: 0.0022564 Arg of perigee: 171.4906 deg Mean anomaly: 188.6646 deg Mean motion: 13.83640110 rev/day Decay rate: -2.8e-07 rev/day^2 Epoch rev: 82380 Checksum: 295
